Voltar ao catálogo

STARLINK-34947

AtivoComunicaçõesSSO
NORAD 65184·PAYLOAD·🇺🇸 United States

Lançado Aug 14, 2025 de Vandenberg Space Force Base

Loading…

Próximas Passagens (próximas 24 horas)

TLE

AtualizadoSource: CelesTrak SupGP

Época: Sep 15, 2026, 03:16 UTC

1 65184C 25175L   26258.13659722  .00009098  00000+0  28261-3 0  2587
2 65184  97.2850 127.1361 0001586  87.4672  35.8690 15.33412108    12

Acompanhe STARLINK-34947 em tempo real com AllMySat

Download on the App Store